SCP
0 0 0 0 0 0 0 0 0 0 0 0 0 0 0 0 0 0 0 0 0 0 0 0 0 0 0 0 0 0 0 0 0 0 0 0 0 0 0 0 0 0 0 0 0 0 0 0 0
0 0 0 0 0 0 0 0 0 0 0 0 0 0 0 0 0 0 0 0 0 0 0 0 0 0 0 0 0 0 0 0 0 0 0 0 0 0 0 0 0 0 0 0 0 0 0 0 0
0 0 0 0 0 0 0 0 0 0 0 0 0 0 0 0 0 0 0 0 0 0 0 0 0 0 0 0 0 0 0 0 0 0 0 0 0 0 0 0 0 0 0 0 0 0 0 0 0
0 0 0 0 0 0 0 0 0 0 0 0 0 0 0 0 0 0 0 0 0 0 0 0 0 0 0 0 0 0 0 0 0 0 0 0 0 0 0 0 0 0 0 0 0 0 0 0 0
0 0 0 0 0 0 0 0 0 0 0 0 0 0 0 0 0 0 0 0 0 0 0 0 0 0 0 0 0 0 0 0 0 0 0 0 0 0 0 0 0 0 0 0 0 0 0 0 0
0 0 0 0 0 0 0 0 0 0 0 0 0 0 0 0 0 0 0 0 0 0 0 0 0 0 0 0 0 0 0 0 0 0 0 0 0 0 0 0 0 0 0 0 0 0 0 0 0
0 0 0 0 0 0 0 0 0 0 0 0 0 0 0 0 0 0 0 0 0 0 0 0 0 0 0 0 0 0 0 0 0 0 0 0 0 0 0 0 0 0 0 0 0 0 0 0 0
0 0 0 0 0 0 0 0 0 0 0 0 0 0 0 0 0 0 0 0 0 0 0 0 0 0 0 0 0 0 0 0 0 0 0 0 0 0 0 0 0 0 0 0 0 0 0 0 0
0 0 0 0 0 0 0 0 0 0 0 0 0 0 0 0 0 0 0 0 0 0 0 0 0 0 0 0 0 0 0 0 0 0 0 0 0 0 0 0 0 0 0 0 0 0 0 0 0
0 0 0 0 0 0 0 0 0 0 0 0 0 0 0 0 0 0 0 0 0 0 0 0 0 0 0 0 0 0 0 0 0 0 0 0 0 0 0 0 0 0 0 0 0 0 0 0 0
0 0 0 0 0 0 0 0 0 0 0 0 0 0 0 0 0 0 0 0 0 0 0 0 0 0 0 0 0 0 0 0 0 0 0 0 0 0 0 0 0 0 0 0 0 0 0 0 0
0 0 0 0 0 0 0 0 0 0 0 0 0 0 0 0 0 0 0 0 0 0 0 0 0 0 0 0 0 0 0 0 0 0 0 0 0 0 0 0 0 0 0 0 0 0 0 0 0
0 0 0 0 0 0 0 0 0 0 0 0 0 0 0 0 0 0 0 0 0 0 0 0 0 0 0 0 0 0 0 0 0 0 0 0 0 0 0 0 0 0 0 0 0 0 0 0 0
0 0 0 0 0 0 0 0 0 0 0 0 0 0 0 0 0 0 0 0 0 0 0 0 0 0 0 0 0 0 0 0 0 0 0 0 0 0 0 0 0 0 0 0 0 0 0 0 0
0 0 0 0 0 0 0 0 0 0 0 0 0 0 0 0 0 0 0 0 0 0 0 0 0 0 0 0 0 0 0 0 0 0 0 0 0 0 0 0 0 0 0 0 0 0 0 0 0
0 0 0 0 0 0 0 0 0 0 0 0 0 0 0 0 0 0 0 0 0 0 0 0 0 0 0 0 0 0 0 0 0 0 0 0 0 0 0 0 0 0 0 0 0 0 0 0 0
0 0 0 0 0 0 0 0 0 0 0 0 0 0 0 0 0 0 0 0 0 0 0 0 0 0 0 0 0 0 0 0 0 0 0 0 0 0 0 0 0 0 0 0 0 0 0 0 0
0 0 0 0 0 0 0 0 0 0 0 0 0 0 0 0 0 0 0 0 0 0 0 0 0 0 0 0 0 0 0 0 0 0 0 0 0 0 0 0 0 0 0 0 0 0 0 0 0
0 0 0 0 0 0 0 0 0 0 0 0 0 0 0 0 0 0 0 0 0 0 0 0 0 0 0 0 0 0 0 0 0 0 0 0 0 0 0 0 0 0 0 0 0 0 0 0 0
0 0 0 0 0 0 0 0 0 0 0 0 0 0 0 0 0 0 0 0 0 0 0 0 0 0 0 0 0 0 0 0 0 0 0 0 0 0 0 0 0 0 0 0 0 0 0 0 0
0 0 0 0 0 0 0 0 0 0 0 0 0 0 0 0 0 0 0 0 0 0 0 0 0 0 0 0 0 0 0 0 0 0 0 0 0 0 0 0 0 0 0 0 0 0 0 0 0
0 0 0 0 0 0 0 0 0 0 0 0 0 0 0 0 0 0 0 0 0 0 0 0 0 0 0 0 0 0 0 0 0 0 0 0 0 0 0 0 0 0 0 0 0 0 0 0 0
0 0 0 0 0 0 0 0 0 0 0 0 0 0 0 0 0 0 0 0 0 0 0 0 0 0 0 0 0 0 0 0 0 0 0 0 0 0 0 0 0 0 0 0 0 0 0 0 0
0 0 0 0 0 0 0 0 0 0 0 0 0 0 0 0 0 0 0 0 0 0 0 0 0 0 0 0 0 0 0 0 0 0 0 0 0 0 0 0 0 0 0 0 0 0 0 0 0
0 0 0 0 0 0 0 0 0 0 0 0 0 0 0 0 0 0 0 0 0 0 0 0 0 0 0 0 0 0 0 0 0 0 0 0 0 0 0 0 0 0 0 0 0 0 0 0 0
0 0 0 0 0 0 0 0 0 0 0 0 0 0 0 0 0 0 0 0 0 0 0 0 0 0 0 0 0 0 0 0 0 0 0 0 0 0 0 0 0 0 0 0 0 0 0 0 0
0 0 0 0 0 0 0 0 0 0 0 0 0 0 0 0 0 0 0 0 0 0 0 0 0 0 0 0 0 0 0 0 0 0 0 0 0 0 0 0 0 0 0 0 0 0 0 0 0
0 0 0 0 0 0 0 0 0 0 0 0 0 0 0 0 0 0 0 0 0 0 0 0 0 0 0 0 0 0 0 0 0 0 0 0 0 0 0 0 0 0 0 0 0 0 0 0 0
0 0 0 0 0 0 0 0 0 0 0 0 0 0 0 0 0 0 0 0 0 0 0 0 0 0 0 0 0 0 0 0 0 0 0 0 0 0 0 0 0 0 0 0 0 0 0 0 0
0 0 0 0 0 0 0 0 0 0 0 0 0 0 0 0 0 0 0 0 0 0 0 0 0 0 0 0 0 0 0 0 0 0 0 0 0 0 0 0 0 0 0 0 0 0 0 0 0
Wind_Speed
10 8 5 3 3 4 7 6 2 1 2 3 4 3 3 4 4 5 3 5 7 9 10 8 8 9 9 9 8 8 8 8 8 7 7 7 7 7 8 8 8 8 8 8 8 8 8 8 8
8 6 4 3 4 5 5 4 2 2 3 3 2 2 2 4 6 7 4 5 7 8 9 8 8 9 9 9 8 7 7 8 7 7 7 7 7 7 7 8 7 7 7 8 8 8 8 7 7
9 6 3 3 5 6 3 1 3 5 4 1 1 2 3 4 5 4 4 5 7 7 7 9 9 9 9 8 8 7 7 7 7 7 7 7 7 6 7 7 7 7 7 7 7 7 7 7 6
4 3 3 5 8 6 3 1 2 2 2 1 1 3 4 5 4 5 5 5 6 7 7 9 9 9 9 9 9 9 8 8 7 7 7 7 7 7 7 7 6 6 6 7 7 7 7 6 6
3 3 5 6 9 6 3 2 0 2 2 2 1 2 4 4 6 6 5 5 6 7 7 9 8 9 9 9 9 9 9 8 7 7 7 7 7 7 7 7 6 6 6 7 7 7 7 6 6
3 3 5 8 8 6 4 2 2 3 1 1 1 1 4 4 5 5 5 5 6 6 7 7 8 8 8 8 8 8 8 8 7 7 7 7 7 7 7 7 6 6 6 7 7 7 6 6 5
4 4 7 8 6 5 3 1 2 2 2 0 2 1 5 5 4 4 4 5 6 6 6 5 6 7 7 7 7 8 7 7 7 6 6 6 6 6 6 6 6 6 6 6 6 6 6 5 5
3 4 7 7 7 5 2 1 1 2 1 2 3 1 3 4 5 4 4 5 5 5 5 5 5 5 5 5 7 7 7 7 7 6 6 5 5 5 6 5 6 7 7 6 6 6 5 5 4
4 5 6 5 4 2 2 1 1 2 1 0 2 3 4 7 5 4 4 4 4 4 4 4 4 4 5 5 6 6 6 7 6 5 6 4 3 3 4 5 6 6 6 6 5 5 5 4 2
4 5 5 3 3 2 1 1 0 1 3 2 2 4 5 6 5 4 4 4 3 3 3 3 3 4 4 4 4 4 4 4 3 3 3 2 2 3 4 6 6 5 5 5 4 3 2 1 0
4 5 4 3 4 4 3 3 2 3 4 2 2 4 5 4 4 4 4 4 4 3 3 3 3 3 3 3 3 2 2 2 3 3 3 2 2 2 3 2 3 3 3 2 2 2 1 0 0
5 5 5 4 3 3 3 3 3 4 3 3 2 2 3 4 4 4 4 3 4 3 3 2 3 3 3 2 2 2 2 2 2 2 3 2 2 2 2 2 2 2 1 2 1 1 1 1 0
7 5 5 4 3 4 5 6 5 6 3 2 1 1 3 4 4 4 3 3 3 4 4 3 3 3 3 2 2 2 2 2 2 2 2 2 2 2 2 2 2 1 1 1 1 1 1 1 1
3 4 5 5 5 5 6 7 6 6 4 4 3 3 2 3 3 3 2 2 3 3 3 4 3 3 3 3 2 2 2 2 3 2 3 3 2 2 2 2 2 1 1 1 1 1 1 1 1
3 5 7 8 7 4 3 8 9 8 5 5 4 3 3 2 2 2 2 2 2 2 3 3 4 3 3 3 3 2 2 2 2 2 3 3 2 3 2 2 2 2 1 1 1 1 1 1 1
5 6 6 6 7 5 4 8 5 3 4 5 4 4 3 2 2 1 1 1 1 2 3 3 3 3 3 2 3 2 2 2 2 2 2 3 2 2 2 2 2 2 2 2 2 1 1 1 1
6 6 7 4 6 5 6 7 4 2 4 5 4 3 3 2 2 1 1 1 1 1 2 3 3 3 3 2 2 2 2 3 2 2 2 2 2 3 2 2 2 2 2 2 2 2 1 1 1
4 5 6 5 5 5 7 9 7 6 6 5 4 3 3 2 2 1 1 1 1 1 2 3 3 2 2 2 1 2 2 2 2 2 2 3 2 2 2 2 2 2 2 2 2 2 1 1 1
7 8 8 6 2 4 8 11 10 6 5 5 4 4 3 2 1 1 1 1 1 1 1 3 3 3 3 2 2 2 3 2 2 2 2 3 3 3 2 2 2 2 2 2 3 2 2 1 1
7 9 9 6 1 3 7 11 10 7 6 6 5 4 3 2 1 1 1 1 1 1 1 2 3 3 3 2 2 2 2 2 2 2 2 3 3 2 2 3 2 3 2 2 2 2 2 2 2
8 8 8 6 5 6 6 8 8 5 5 4 3 3 2 2 2 1 1 1 0 1 2 2 2 3 2 2 2 1 1 1 2 2 2 3 3 3 2 3 3 3 3 3 3 3 3 2 2
8 3 4 5 4 4 4 6 5 3 3 4 3 2 1 1 1 1 1 1 0 0 1 1 2 2 2 2 3 4 3 3 3 2 2 3 3 3 3 3 3 3 3 3 3 3 2 3 3
3 2 3 5 5 6 5 6 6 3 4 4 4 3 2 2 1 1 2 1 1 1 1 1 1 1 2 2 2 3 2 1 1 2 3 2 2 3 3 3 3 3 3 3 3 3 3 3 3
1 2 4 4 3 7 8 7 6 3 4 3 3 3 2 2 2 2 2 2 2 2 2 1 1 1 1 2 2 2 2 1 2 2 3 2 2 2 3 2 3 3 2 3 3 4 4 3 3
2 2 1 2 4 7 5 6 6 1 1 2 3 3 3 3 3 3 3 3 3 3 2 2 2 1 1 1 2 2 2 2 2 2 2 2 2 2 3 2 3 2 2 2 2 3 3 3 4
5 4 3 3 4 3 2 6 4 1 3 4 4 4 3 3 3 3 3 3 2 3 2 2 2 2 1 1 0 1 1 1 1 1 1 2 2 2 2 3 2 2 2 2 2 2 2 2 3
4 5 2 2 2 4 5 4 2 1 2 2 3 3 3 3 3 3 4 4 3 3 3 3 2 3 2 2 2 1 1 0 0 0 1 1 1 1 2 3 2 2 2 3 3 2 2 2 2
3 1 2 3 3 5 5 5 3 2 2 1 2 2 2 3 3 3 4 4 3 3 3 3 3 3 3 3 2 1 1 1 1 1 1 0 0 0 2 2 3 2 2 2 2 2 2 2 2
3 2 3 3 3 3 4 3 2 1 2 2 2 3 3 3 2 3 3 3 3 3 3 3 3 3 3 3 2 2 2 2 2 1 1 0 0 0 1 1 2 2 2 2 2 2 2 3 2
3 5 5 4 5 4 4 5 2 4 3 3 3 3 3 2 2 2 2 3 3 3 3 3 3 3 3 2 2 2 2 2 2 2 2 1 1 0 1 1 2 2 2 2 2 2 2 3 3
Wind_Direction
294 268 257 254 232 230 240 238 243 77 66 55 35 13 29 29 36 99 122 99 104 118 129 139 132 135 134 131 127 126 125 121 117 113 109 106 104 103 101 100 98 97 95 94 93 89 84 81 79
290 279 261 240 239 238 237 229 205 85 84 74 50 2 59 69 73 101 111 104 113 121 132 136 130 134 134 132 131 130 127 125 123 117 113 110 108 105 104 101 98 98 98 96 96 95 90 85 82
276 265 252 239 238 245 247 50 72 78 83 125 120 32 35 68 83 94 103 117 117 119 127 127 131 132 134 134 135 132 127 124 122 116 112 110 108 105 104 101 98 99 99 95 95 98 95 90 85
272 240 240 245 248 251 272 358 70 124 128 165 143 109 84 56 56 84 106 121 120 122 122 125 131 134 133 130 128 126 123 121 118 116 113 111 107 103 101 97 96 99 100 97 92 92 97 94 88
252 244 235 240 246 254 276 339 5 201 170 173 213 135 98 85 85 98 107 117 115 115 118 129 129 131 130 128 126 123 120 116 114 114 114 112 109 105 100 95 94 95 94 91 89 87 88 90 86
255 242 239 240 240 236 234 253 260 248 218 184 251 164 106 110 104 109 113 105 103 110 117 130 128 127 127 127 125 124 121 116 112 112 112 110 109 107 105 102 97 96 99 96 90 87 85 86 84
261 255 251 257 257 246 227 229 250 250 247 275 313 158 120 119 106 116 118 109 105 107 112 124 136 135 127 125 123 121 121 118 113 109 105 103 105 106 103 103 101 102 100 97 96 93 87 82 80
280 273 252 249 250 251 203 173 332 328 321 23 359 348 116 123 117 124 122 112 109 109 115 126 134 137 137 129 122 121 119 116 111 106 103 102 104 105 100 94 96 98 100 97 95 92 88 83 76
267 253 250 251 260 247 130 168 107 26 333 3 56 46 74 116 124 132 130 121 120 122 122 132 139 136 137 140 136 131 127 125 123 122 126 129 129 124 109 95 97 97 97 98 96 94 90 81 74
226 246 251 286 325 341 22 283 172 201 238 215 137 101 109 126 141 152 151 146 142 143 142 137 141 139 137 141 144 147 147 142 146 138 147 154 125 110 107 106 107 106 104 104 100 100 102 82 96
230 249 282 309 336 337 314 296 294 256 255 251 190 148 142 156 164 170 175 167 163 163 144 138 140 136 135 132 147 142 140 145 150 140 144 129 113 117 120 124 124 125 130 121 123 147 196 129 72
248 262 280 294 327 323 299 291 283 254 266 352 21 125 155 176 187 192 193 182 162 160 157 152 140 138 135 138 149 139 137 146 145 141 141 130 129 133 135 134 136 142 142 138 151 173 151 104 73
240 257 274 285 290 286 285 273 271 258 254 272 285 186 184 192 198 199 196 180 163 168 168 166 159 148 145 143 155 151 150 153 150 142 152 143 138 148 140 134 132 139 131 143 153 162 151 133 101
273 271 268 263 257 253 256 262 250 243 222 214 205 211 201 198 196 193 195 187 180 176 175 169 171 161 155 159 165 159 158 157 151 151 156 156 148 147 142 140 142 140 141 149 148 160 150 132 121
280 267 259 238 230 220 243 257 234 236 222 217 213 210 206 199 191 201 203 201 191 177 168 167 172 169 168 169 170 159 158 153 151 156 156 155 151 152 150 150 153 155 145 131 132 141 125 137 132
235 240 242 210 198 187 205 255 246 209 205 221 217 210 202 196 184 199 206 190 195 176 168 169 170 172 174 174 174 162 158 146 142 146 146 152 154 155 156 158 163 162 151 148 153 155 160 166 169
217 233 237 219 190 185 211 256 261 224 216 223 219 215 207 193 187 196 201 177 187 189 166 157 162 167 173 177 180 160 149 140 137 135 139 155 158 157 158 159 157 157 153 159 172 160 167 172 185
242 251 259 245 184 203 229 253 263 253 232 228 227 221 214 203 196 186 186 172 172 180 167 152 159 159 155 157 169 155 143 144 139 144 149 154 154 162 160 156 158 161 161 169 168 162 157 162 168
288 287 280 277 197 220 244 260 266 258 240 229 230 231 234 220 181 141 148 145 146 152 172 166 161 161 151 158 175 173 172 164 155 154 155 160 158 161 156 156 165 169 174 179 173 160 157 157 122
269 276 277 281 203 237 262 270 268 245 233 226 224 225 230 222 176 107 95 102 119 164 199 179 166 168 171 178 186 182 167 173 168 158 163 170 163 163 172 162 172 177 175 174 175 161 160 167 154
254 254 269 286 304 252 261 278 243 228 214 210 208 206 206 188 176 143 106 87 72 194 198 193 175 169 171 157 135 128 132 133 161 180 184 188 177 174 173 173 171 177 181 186 186 180 174 174 190
261 277 273 277 281 268 219 280 261 223 204 198 193 192 190 137 134 133 120 101 112 279 189 174 156 157 153 151 156 165 182 187 193 186 184 189 180 172 176 179 181 184 188 193 190 184 186 170 183
258 327 286 268 262 274 242 248 268 217 225 212 186 170 157 136 118 113 113 93 54 24 90 120 117 133 135 145 164 179 197 198 173 162 164 178 178 176 181 180 180 184 190 193 189 187 188 182 184
269 279 264 248 243 253 226 218 265 224 221 185 151 146 134 108 95 81 76 63 37 36 50 89 105 110 124 142 165 184 195 183 169 171 173 180 180 184 186 182 181 186 191 195 195 194 187 191 195
195 195 258 234 220 244 206 213 248 261 64 104 121 120 114 102 84 72 64 53 37 33 36 58 80 71 92 141 175 187 193 196 190 182 186 181 183 192 193 185 189 186 193 194 185 185 190 188 192
204 210 210 235 243 275 211 228 242 108 72 74 93 96 94 93 83 73 59 46 40 41 39 46 53 48 47 63 159 156 173 199 211 198 185 194 200 199 189 186 190 185 184 186 178 180 190 192 197
189 216 270 284 278 274 250 237 254 117 100 96 100 92 88 85 76 71 61 46 34 35 34 41 43 39 35 28 32 35 35 55 189 175 162 179 217 195 181 183 184 188 184 181 172 177 184 187 202
282 246 155 199 228 253 250 237 239 203 194 124 116 106 86 82 71 64 61 48 34 39 37 41 41 39 32 24 23 31 25 28 43 100 130 137 246 162 168 177 178 180 182 174 170 169 173 177 198
188 218 218 230 235 238 261 255 22 98 138 134 104 104 104 100 91 72 60 51 40 44 47 45 41 40 33 22 18 26 26 28 38 41 36 62 62 158 157 161 167 178 180 170 172 181 176 188 200
205 214 200 212 240 237 259 266 15 48 68 99 95 92 90 95 88 82 75 60 45 45 44 41 34 37 30 24 23 28 32 36 37 22 12 21 48 84 122 131 156 176 181 175 181 193 193 198 203